[[{"header":{"parameterUnit":"m.s-1","parameterCategory":1,"la1":30.2991,"la2":30.254,"lo1":-89.0895,"lo2":-89.0444,"dy":0.0017,"dx":0.0017,"nx":28,"ny":28,"refTime":"2024-08-27T09:00:00:Z","depth":0,"parameterNumber":2,"parameterNumberName":"U-component_of_WINDS"},"data":[0,0,0,0,0,0,0,0,0,0,0,0,0,0,0,0,0,0,0,0,0,0,0,0,0,0,0,0,0,0,0,0,0,0,0,0,0,0,0,0,0,0,0,0,0,0,0,0,0,0,0,0,0,0,0,0,0,0,0.4616,0.4616,0,0.4629,0.463,0.463,0.466,0.466,0.4661,0.4661,0.4674,0.4674,0.4674,0,0,0,0,0,0,0,0,0,0,0,0,0,0.4613,0.4613,0.4615,0.4616,0.4616,0.4629,0.463,0.463,0.466,0.466,0.4661,0.4662,0.4674,0.4674,0.4674,0,0,0,0,0,0,0,0,0,0,0,0,0,0.4619,0.4613,0.4615,0.4632,0.4634,0.4629,0.463,0.463,0.4659,0.466,0.4661,0.4662,0.4674,0.4674,0.4673,0.4653,0,0,0.4672,0.4672,0,0,0,0,0,0,0,0,0.4619,0.4619,0.463,0.4631,0.4633,0.4644,0.4633,0.4638,0.4659,0.465,0.4661,0.4663,0.4663,0.4664,0.4664,0.4654,0.4654,0.4672,0.4672,0.4672,0.4672,0,0,0,0,0,0,0,0.4618,0.4619,0.4621,0.463,0.4632,0.4639,0.4641,0.4634,0.4651,0.4651,0.4653,0.4654,0.4664,0.4665,0.4665,0.4654,0.4672,0.4672,0.4672,0.4672,0.4627,0.4626,0,0,0,0,0,0,0.4616,0.4618,0.4621,0.4621,0.4628,0.4638,0.464,0.4639,0.4651,0.4654,0.4653,0.4655,0.4665,0.4665,0.4665,0.4641,0.4672,0.4672,0.4671,0.4628,0.4627,0.4626,0,0,0,0,0,0,0.4616,0.4616,0.462,0.4621,0.4622,0.4637,0.4636,0.4639,0.464,0.4653,0.4656,0.4651,0.4665,0.4666,0.4656,0.4642,0.4672,0.4671,0.4629,0.4628,0.4626,0.4594,0,0,0,0,0,0,0.4615,0.4615,0.4608,0.462,0.4621,0.461,0.4635,0.4639,0.4639,0.4642,0.4652,0.4654,0.4666,0.4656,0.4655,0.4642,0.4671,0.463,0.4628,0.4627,0.4596,0.4591,0.4587,0,0,0,0,0,0.4615,0.4598,0.4608,0.4608,0.4613,0.461,0.461,0.4625,0.4638,0.463,0.4639,0.4654,0.4644,0.4655,0.4654,0.4641,0.4631,0.4629,0.4627,0.4598,0.4592,0.4587,0,0,0,0,0,0,0.4583,0.46,0.4611,0.4597,0.4602,0.4615,0.4606,0.4619,0.4619,0.4622,0.464,0.4642,0.4629,0.4634,0.4646,0.4622,0.464,0.4638,0.4618,0.4613,0.4609,0.4607,0.4671,0,0,0,0,0,0.4575,0.4572,0.4586,0.4573,0.4575,0.459,0.4589,0.46,0.4605,0.4607,0.4616,0.462,0.4618,0.4616,0.4615,0.4598,0.46,0.4588,0.4584,0.458,0.4577,0.4568,0.4562,0.4619,0.4619,0.4619,0,0,0.4557,0.4566,0.4562,0.4566,0.4571,0.4567,0.4591,0.4585,0.4582,0.4606,0.4597,0.4604,0.4609,0.4595,0.459,0.4599,0.4562,0.4577,0.4574,0.4573,0.4565,0.456,0.4555,0.4617,0.4617,0.4618,0,0,0.4522,0.4528,0.4518,0.4522,0.453,0.454,0.4538,0.4549,0.4554,0.4546,0.4563,0.456,0.4556,0.4559,0.4561,0.4527,0.454,0.4527,0.4503,0.4494,0.4489,0.4485,0.4472,0.4468,0.4524,0.4524,0.4524,0,0.4498,0.4493,0.451,0.4503,0.4504,0.4527,0.4516,0.452,0.4526,0.4526,0.4537,0.4533,0.4539,0.4525,0.4517,0.4518,0.4515,0.4525,0.4489,0.4485,0.4481,0.4469,0.4464,0.4522,0.4522,0.4523,0.4523,0,0.4463,0.4459,0.4449,0.4455,0.4456,0.4447,0.4462,0.446,0.4472,0.4481,0.4471,0.4479,0.448,0.4478,0.4489,0.4466,0.4472,0.4485,0.4504,0.4474,0.4463,0.4458,0.452,0.452,0.4521,0.4521,0,0,0.4406,0.4423,0.4419,0.4422,0.4433,0.443,0.4422,0.4423,0.442,0.4425,0.4418,0.4414,0.4427,0.4429,0.444,0.4432,0.4404,0.4447,0.4447,0.4437,0.4378,0.4367,0.4361,0.4413,0.4413,0.4412,0.4377,0,0.4372,0.436,0.4376,0.436,0.4356,0.4378,0.4371,0.4376,0.4385,0.4382,0.4392,0.4388,0.4406,0.4407,0.44,0.4409,0.4392,0.4412,0.4406,0.4406,0.4402,0.4356,0.4344,0.431,0.4373,0.4373,0.4372,0,0.433,0.4333,0.4317,0.4328,0.4327,0.4321,0.4323,0.4321,0.4327,0.4334,0.4336,0.435,0.4343,0.4362,0.4351,0.4364,0.4363,0.4367,0.4366,0.4365,0.4386,0.4352,0.43,0.4295,0.4366,0.4366,0.4367,0,0.4289,0.4289,0.4279,0.4281,0.4295,0.4289,0.4295,0.4302,0.4302,0.4304,0.4304,0.4305,0.4305,0.4306,0.4319,0.4333,0.4307,0.4327,0.4311,0.431,0.4303,0.4303,0.4249,0.4305,0.4305,0.4305,0.4305,0,0.4249,0.4237,0.4261,0.4254,0.4242,0.4261,0.4248,0.4256,0.4262,0.4257,0.4277,0.4272,0.4291,0.4288,0.4299,0.4288,0.4288,0.4293,0.4295,0.429,0.4289,0.4288,0.429,0.4304,0.4304,0.4304,0.4304,0,0.42,0.4215,0.4205,0.422,0.4223,0.4213,0.4225,0.4219,0.423,0.4223,0.4223,0.4238,0.4235,0.425,0.425,0.4257,0.424,0.4247,0.4237,0.4239,0.4221,0.4222,0.4164,0.4157,0.4218,0.4217,0.4217,0,0.4172,0.4164,0.4177,0.4176,0.418,0.4178,0.4178,0.4196,0.4195,0.4202,0.4196,0.4195,0.4195,0.4189,0.42,0.42,0.4206,0.4186,0.4206,0.4201,0.4204,0.4204,0.4203,0.4181,0.418,0.418,0.4179,0,0.4121,0.4129,0.4129,0.4131,0.4131,0.4133,0.4137,0.4135,0.4155,0.4153,0.415,0.415,0.4151,0.4149,0.4151,0.4156,0.417,0.4173,0.4169,0.4163,0.4157,0.4158,0.4224,0.4174,0.4175,0.4175,0.4175,0.4175,0.408,0.4074,0.4083,0.4082,0.4087,0.409,0.4086,0.4096,0.4094,0.4096,0.4107,0.4103,0.411,0.4114,0.4118,0.4114,0.4124,0.4118,0.4116,0.4114,0.411,0.4159,0.4115,0.4115,0.4115,0.4115,0.4115,0,0.4029,0.4036,0.4035,0.404,0.4039,0.4055,0.406,0.4058,0.4054,0.4059,0.4059,0.4057,0.4055,0.4067,0.4067,0.4061,0.4068,0.4061,0.406,0.4061,0.4103,0.4105,0.4055,0.4055,0.4055,0.4055,0.4055,0.4055,0.4002,0.3992,0.4001,0.3994,0.4001,0.3997,0.3999,0.4002,0.4006,0.4002,0.4002,0.401,0.4017,0.4018,0.4017,0.4021,0.4019,0.4009,0.4014,0.4052,0.4058,0.4064,0.4066,0.4009,0.4009,0.3973,0.3973,0.3973]},{"header":{"parameterUnit":"m.s-1","parameterCategory":1,"la1":30.2991,"la2":30.254,"lo1":-89.0895,"lo2":-89.0444,"dy":0.0017,"dx":0.0017,"nx":28,"ny":28,"refTime":"2024-08-27T09:00:00:Z","depth":0,"parameterNumber":3,"parameterNumberName":"V-component_of_WINDS"},"data":[0,0,0,0,0,0,0,0,0,0,0,0,0,0,0,0,0,0,0,0,0,0,0,0,0,0,0,0,0,0,0,0,0,0,0,0,0,0,0,0,0,0,0,0,0,0,0,0,0,0,0,0,0,0,0,0,0,0,1.271,1.271,0,1.2679,1.2678,1.2678,1.2665,1.2665,1.2665,1.2665,1.2629,1.2628,1.2627,0,0,0,0,0,0,0,0,0,0,0,0,0,1.2757,1.2756,1.271,1.271,1.271,1.2679,1.2678,1.2678,1.2665,1.2665,1.2665,1.2665,1.2629,1.2628,1.2627,0,0,0,0,0,0,0,0,0,0,0,0,0,1.2732,1.2756,1.2711,1.27,1.2698,1.2679,1.2678,1.2678,1.2665,1.2665,1.2665,1.2665,1.263,1.2628,1.2626,1.2614,0,0,1.2622,1.2621,0,0,0,0,0,0,0,0,1.2733,1.273,1.2702,1.27,1.2699,1.2676,1.2681,1.2656,1.2665,1.2678,1.2665,1.2665,1.2644,1.2641,1.2635,1.2612,1.2611,1.2622,1.2621,1.262,1.2619,0,0,0,0,0,0,0,1.2735,1.2732,1.2698,1.2701,1.27,1.2695,1.2692,1.2676,1.266,1.2676,1.2675,1.2672,1.2643,1.2637,1.2634,1.261,1.2622,1.262,1.2619,1.2619,1.2575,1.2575,0,0,0,0,0,0,1.2739,1.2733,1.2699,1.2697,1.2717,1.2694,1.2691,1.2683,1.2661,1.2657,1.2672,1.2672,1.2639,1.2636,1.2633,1.2616,1.262,1.2618,1.2618,1.2575,1.2575,1.2575,0,0,0,0,0,0,1.274,1.2736,1.27,1.2715,1.271,1.2693,1.2685,1.2682,1.2676,1.2657,1.2654,1.2668,1.2639,1.2635,1.2619,1.2615,1.2618,1.2616,1.2576,1.2575,1.2575,1.2584,0,0,0,0,0,0,1.2742,1.2737,1.2733,1.2715,1.2709,1.2688,1.2685,1.2682,1.2673,1.2673,1.2653,1.265,1.2639,1.2621,1.2617,1.2613,1.2615,1.2576,1.2575,1.2575,1.2584,1.2584,1.2584,0,0,0,0,0,1.2743,1.2736,1.2733,1.2728,1.2704,1.2688,1.2684,1.2673,1.2673,1.2668,1.2656,1.265,1.2616,1.262,1.2615,1.261,1.2576,1.2576,1.2575,1.2584,1.2584,1.2584,0,0,0,0,0,0,1.2752,1.2733,1.2729,1.2716,1.2704,1.2686,1.2679,1.2674,1.266,1.266,1.2646,1.2641,1.2626,1.2617,1.2621,1.2596,1.2595,1.2594,1.2604,1.2603,1.2604,1.2606,1.2614,0,0,0,0,0,1.2753,1.2743,1.2726,1.2716,1.271,1.2696,1.2688,1.2681,1.2667,1.2662,1.2649,1.2634,1.262,1.2611,1.2598,1.2582,1.2577,1.2576,1.2576,1.2577,1.2575,1.2566,1.2565,1.2573,1.2573,1.2573,0,0,1.2754,1.2742,1.2736,1.2717,1.2707,1.2696,1.2691,1.268,1.267,1.2659,1.2644,1.2634,1.2617,1.2601,1.2593,1.2592,1.2572,1.2576,1.2576,1.2575,1.2565,1.2564,1.2564,1.2573,1.2573,1.2573,0,0,1.275,1.274,1.273,1.272,1.2705,1.2696,1.2693,1.2676,1.2669,1.2654,1.2645,1.2633,1.261,1.2598,1.2589,1.258,1.2574,1.2576,1.2576,1.2567,1.2566,1.2566,1.2562,1.2561,1.2575,1.2575,1.2575,0,1.2752,1.2736,1.2726,1.2714,1.2706,1.2697,1.2686,1.2676,1.2657,1.265,1.265,1.262,1.2608,1.2589,1.2587,1.258,1.2576,1.2578,1.2567,1.2567,1.2566,1.2562,1.2561,1.2575,1.2575,1.2575,1.2575,0,1.274,1.2728,1.2722,1.2705,1.2696,1.2685,1.2672,1.2663,1.2657,1.2647,1.2631,1.2616,1.2599,1.2594,1.2587,1.2574,1.2574,1.257,1.2569,1.2566,1.2562,1.256,1.2576,1.2576,1.2576,1.2575,0,0,1.274,1.2718,1.2715,1.2707,1.269,1.268,1.2668,1.2653,1.2645,1.2632,1.2621,1.2602,1.2599,1.2588,1.258,1.2572,1.2565,1.2569,1.2569,1.2569,1.2549,1.2551,1.255,1.2561,1.2561,1.256,1.255,0,1.2733,1.2713,1.2703,1.2687,1.2676,1.2666,1.2656,1.2643,1.2634,1.2622,1.2611,1.2597,1.2595,1.2588,1.258,1.2568,1.2561,1.2568,1.2549,1.2549,1.2553,1.2548,1.255,1.2541,1.2549,1.2548,1.2548,0,1.2722,1.271,1.2693,1.2677,1.2671,1.2662,1.2647,1.2636,1.2621,1.2615,1.2604,1.2596,1.2582,1.2582,1.2561,1.2567,1.2558,1.2551,1.255,1.2548,1.2548,1.2544,1.2538,1.2537,1.2546,1.2546,1.2546,0,1.2724,1.2703,1.269,1.2683,1.2664,1.2658,1.2649,1.2635,1.2626,1.2612,1.2606,1.259,1.2581,1.2569,1.2556,1.2557,1.2537,1.2536,1.253,1.253,1.2526,1.2526,1.2518,1.2521,1.2521,1.2521,1.2521,0,1.2717,1.2706,1.269,1.2682,1.267,1.2659,1.2646,1.2637,1.2624,1.2613,1.2604,1.2593,1.2578,1.2565,1.2555,1.2539,1.2535,1.2529,1.2526,1.2529,1.253,1.2523,1.2523,1.2521,1.2521,1.2521,1.2521,0,1.2716,1.2705,1.269,1.2673,1.2669,1.266,1.2645,1.2636,1.2627,1.2613,1.2609,1.2593,1.2577,1.2564,1.2543,1.2536,1.252,1.2517,1.2525,1.2524,1.2518,1.2519,1.2505,1.2502,1.2508,1.2508,1.2508,0,1.2712,1.2704,1.2687,1.2679,1.2671,1.2659,1.265,1.2638,1.2629,1.2612,1.2605,1.2589,1.2575,1.2551,1.2536,1.252,1.2516,1.2512,1.2514,1.2517,1.2515,1.2516,1.2515,1.2512,1.2512,1.2512,1.2512,0,1.2706,1.2701,1.2689,1.2676,1.2666,1.2654,1.2642,1.2636,1.2621,1.2611,1.2596,1.2586,1.2565,1.2549,1.2531,1.2521,1.2514,1.2512,1.251,1.2513,1.2518,1.2514,1.2525,1.2512,1.2512,1.2512,1.2512,1.2512,1.2703,1.2695,1.2682,1.2669,1.2659,1.2648,1.2639,1.2628,1.2616,1.2598,1.2592,1.2576,1.256,1.2536,1.2526,1.2512,1.2511,1.2508,1.2507,1.2506,1.2506,1.2521,1.2509,1.2509,1.2509,1.2509,1.2509,0,1.2696,1.2687,1.2675,1.2659,1.2649,1.2645,1.2631,1.2622,1.2608,1.2595,1.2583,1.2564,1.2549,1.2534,1.2517,1.2509,1.2505,1.2505,1.2505,1.2502,1.2509,1.2512,1.2508,1.2508,1.2508,1.2508,1.2508,1.2508,1.2691,1.2678,1.2671,1.2652,1.2643,1.2628,1.2621,1.261,1.2599,1.258,1.2567,1.2558,1.2544,1.2526,1.2511,1.2506,1.25,1.2501,1.2496,1.2502,1.2502,1.2502,1.2505,1.25,1.25,1.249,1.249,1.249]}]]